Weather History for Dallas Redbird, TX

Change the Weather History Date:

Wednesday, May 15, 2013

  Actual Average Record
Temperature  
Mean Temperature 68 °F -  
Max Temperature 75 °F 81 °F 89 °F (1998)
Min Temperature 62 °F 61 °F 50 °F (2014)
Cooling Degree Days 4    
Growing Degree Days 18 (Base 50)    
Moisture  
Dew Point 66 °F    
Average Humidity 84    
Maximum Humidity 94    
Minimum Humidity 68    
Precipitation  
Precipitation 0.03 in - - ()
Sea Level Pressure  
Sea Level Pressure 29.90 in    
Wind  
Wind Speed 12 mph (SE)    
Max Wind Speed 26 mph    
Max Gust Speed 46 mph    
Visibility 6 miles    
Events Fog , Rain , Thunderstorm    
Averages and records for this station are not official NWS values.
T = Trace of Precipitation, MM = Missing Value Source: NWS Daily Summary

Daily Weather History Graph

Daily Weather History Graph

Search for Another Location

Airport:

Trip Planner

Search our weather history database for the weather conditions in past years. The results will help you decide how hot, cold, wet, or windy it might be!

Date:

Astronomy

May. 15, 2013 Rise Set
Actual Time 6:28 AM CDT 8:19 PM CDT
Civil Twilight 6:01 AM CDT 8:46 PM CDT
Nautical Twilight 5:28 AM CDT 9:19 PM CDT
Astronomical Twilight 4:53 AM CDT 9:54 PM CDT
Moon 11:02 AM CDT (5/15) 12:08 AM CDT (5/15)
Length of Visible Light 14h 45m
Length of Day
13h 50m
Waxing Crescent, 27% of the Moon is Illuminated
May 15
Waxing Crescent
May 17
First Quarter
May 24
Full
May 31
Last Quarter
Jun 8
New

Hourly Weather History & Observations

Time (CDT) Temp. Dew Point Humidity Pressure Visibility Wind Dir Wind Speed Gust Speed Precip Events Conditions
12:53 AM 72.0 °F 61.0 °F 68% 30.03 in 10.0 mi SSE 8.1 mph - N/A   Clear
1:53 AM 73.0 °F 64.0 °F 73% 30.01 in 10.0 mi South 11.5 mph 24.2 mph N/A   Scattered Clouds
2:01 AM 71.6 °F 64.4 °F 78% 30.03 in 10.0 mi South 13.8 mph 18.4 mph N/A   Mostly Cloudy
2:38 AM 73.4 °F 64.4 °F 73% 30.02 in 10.0 mi South 11.5 mph 23.0 mph N/A   Scattered Clouds
2:53 AM 73.0 °F 64.9 °F 76% 29.99 in 10.0 mi South 13.8 mph 21.9 mph N/A   Clear
3:53 AM 72.0 °F 64.9 °F 78% 29.99 in 10.0 mi South 9.2 mph 19.6 mph N/A   Partly Cloudy
4:53 AM 72.0 °F 64.0 °F 76% 29.97 in 10.0 mi South 11.5 mph 23.0 mph N/A   Clear
5:53 AM 71.1 °F 64.0 °F 78% 29.96 in 10.0 mi South 15.0 mph 23.0 mph N/A   Mostly Cloudy
6:13 AM 71.6 °F 64.4 °F 78% 29.98 in 10.0 mi South 12.7 mph 24.2 mph N/A   Mostly Cloudy
6:30 AM 71.6 °F 64.4 °F 78% 29.98 in 10.0 mi South 15.0 mph 24.2 mph N/A   Mostly Cloudy
6:48 AM 69.8 °F 64.4 °F 83% 29.97 in 10.0 mi South 10.4 mph 21.9 mph N/A   Scattered Clouds
6:53 AM 70.0 °F 64.0 °F 81% 29.96 in 10.0 mi SSE 12.7 mph 20.7 mph N/A   Scattered Clouds
7:53 AM 70.0 °F 64.0 °F 81% 29.99 in 9.0 mi South 6.9 mph 18.4 mph 0.00 in   Mostly Cloudy
8:02 AM 69.8 °F 64.4 °F 83% 30.01 in 9.0 mi SSE 8.1 mph - N/A   Overcast
8:53 AM 71.1 °F 64.9 °F 81% 30.00 in 9.0 mi South 11.5 mph 21.9 mph N/A   Overcast
9:37 AM 71.6 °F 64.4 °F 78% 30.01 in 10.0 mi SSE 9.2 mph 17.3 mph N/A   Scattered Clouds
9:51 AM 71.6 °F 64.4 °F 78% 30.02 in 9.0 mi South 12.7 mph 23.0 mph N/A   Mostly Cloudy
9:53 AM 72.0 °F 64.9 °F 78% 30.00 in 9.0 mi South 10.4 mph 23.0 mph N/A   Mostly Cloudy
10:15 AM 73.4 °F 64.4 °F 73% 30.01 in 10.0 mi South 12.7 mph 20.7 mph N/A   Scattered Clouds
10:33 AM 73.4 °F 64.4 °F 73% 30.01 in 10.0 mi South 9.2 mph 19.6 mph N/A   Mostly Cloudy
10:53 AM 75.0 °F 64.9 °F 71% 29.99 in 10.0 mi South 12.7 mph 19.6 mph N/A   Overcast
11:53 AM 73.9 °F 64.9 °F 73% 29.98 in 10.0 mi South 8.1 mph 20.7 mph N/A   Overcast
12:53 PM 73.9 °F 66.0 °F 76% 29.95 in 10.0 mi South 13.8 mph 24.2 mph N/A   Overcast
1:53 PM 73.0 °F 66.9 °F 81% 29.92 in 3.0 mi SSE 13.8 mph 18.4 mph 0.00 in Rain Rain
1:57 PM 71.6 °F 66.2 °F 83% 29.94 in 1.5 mi SSE 17.3 mph - 0.00 in Rain Rain
2:06 PM 71.6 °F 68.0 °F 88% 29.94 in 0.5 mi South 12.7 mph - N/A Fog , Rain Heavy Rain
2:15 PM 71.6 °F 68.0 °F 88% 29.94 in 0.2 mi Variable 3.5 mph - N/A Fog , Rain Heavy Rain
2:23 PM 71.6 °F 68.0 °F 88% 29.93 in 1.0 mi South 6.9 mph - N/A Rain Rain
2:35 PM 71.6 °F 68.0 °F 88% 29.93 in 2.5 mi SSE 12.7 mph 16.1 mph N/A Rain Light Rain
2:43 PM 71.6 °F 69.8 °F 94% 29.92 in 3.0 mi SSE 8.1 mph 16.1 mph N/A Rain Light Rain
2:53 PM 71.1 °F 68.0 °F 90% 29.90 in 3.0 mi SSE 12.7 mph 23.0 mph N/A Rain Light Rain
3:15 PM 71.6 °F 68.0 °F 88% 29.90 in 3.0 mi SSE 10.4 mph 20.7 mph 0.00 in Rain Light Rain
3:53 PM 71.1 °F 68.0 °F 90% 29.88 in 5.0 mi SSE 9.2 mph 18.4 mph 0.01 in   Overcast
4:18 PM 71.6 °F 68.0 °F 88% 29.89 in 2.5 mi SSE 11.5 mph 16.1 mph 0.00 in Rain Light Rain
4:32 PM 71.6 °F 68.0 °F 88% 29.88 in 3.0 mi SSE 11.5 mph 17.3 mph 0.01 in Rain Light Rain
4:53 PM 71.1 °F 68.0 °F 90% 29.85 in 7.0 mi SSE 8.1 mph - 0.01 in   Overcast
5:33 PM 71.6 °F 68.0 °F 88% 29.83 in 8.0 mi SE 18.4 mph - 0.00 in   Overcast
5:53 PM 72.0 °F 69.1 °F 91% 29.79 in 7.0 mi SE 13.8 mph 21.9 mph 0.00 in   Overcast
6:53 PM 72.0 °F 68.0 °F 87% 29.78 in 6.0 mi SE 11.5 mph 20.7 mph N/A   Overcast
7:53 PM 72.0 °F 68.0 °F 87% 29.81 in 7.0 mi SSE 11.5 mph 17.3 mph 0.01 in Rain Light Rain
8:11 PM 71.6 °F 68.0 °F 88% 29.81 in 2.0 mi SE 13.8 mph 18.4 mph N/A Rain Heavy Rain
8:21 PM 71.6 °F 68.0 °F 88% 29.79 in 1.8 mi East 16.1 mph 21.9 mph N/A Rain Heavy Rain
8:23 PM 71.6 °F 68.0 °F 88% 29.78 in 1.8 mi East 15.0 mph 21.9 mph N/A Rain Heavy Rain
8:26 PM 71.6 °F 68.0 °F 88% 29.78 in 2.0 mi East 15.0 mph 21.9 mph N/A Rain Light Rain
8:35 PM 71.6 °F 68.0 °F 88% 29.80 in 4.0 mi ESE 12.7 mph 20.7 mph N/A Rain Rain
8:46 PM 71.6 °F 68.0 °F 88% 29.81 in 3.0 mi East 11.5 mph 20.7 mph N/A Rain , Thunderstorm Thunderstorms and Rain
8:53 PM 71.1 °F 68.0 °F 90% 29.80 in 3.0 mi East 10.4 mph - N/A Rain , Thunderstorm Heavy Thunderstorms and Rain
9:07 PM 71.6 °F 68.0 °F 88% 29.79 in 2.5 mi East 18.4 mph 25.3 mph N/A Rain , Thunderstorm Thunderstorms and Rain
9:15 PM 71.6 °F 68.0 °F 88% 29.76 in 1.5 mi ENE 21.9 mph 26.5 mph N/A Rain , Thunderstorm Heavy Thunderstorms and Rain
9:22 PM 71.6 °F 68.0 °F 88% 29.74 in 3.0 mi East 24.2 mph 34.5 mph N/A Rain , Thunderstorm Light Thunderstorms and Rain
9:48 PM 71.6 °F 68.0 °F 88% 29.80 in 4.0 mi Calm Calm - N/A Rain , Thunderstorm Light Thunderstorms and Rain
9:53 PM 71.1 °F 68.0 °F 90% 29.78 in 5.0 mi ESE 10.4 mph - N/A Rain , Thunderstorm Light Thunderstorms and Rain
10:18 PM 71.6 °F 68.0 °F 88% 29.80 in 6.0 mi ESE 12.7 mph - N/A Thunderstorm Overcast
10:26 PM 71.6 °F 68.0 °F 88% 29.78 in 6.0 mi ESE 15.0 mph - N/A Thunderstorm Overcast
10:35 PM 71.6 °F 68.0 °F 88% 29.79 in 5.0 mi SE 16.1 mph 23.0 mph N/A   Overcast
10:40 PM 71.6 °F 68.0 °F 88% 29.78 in 5.0 mi SE 15.0 mph 23.0 mph N/A Thunderstorm Overcast
10:53 PM 71.1 °F 68.0 °F 90% 29.78 in 5.0 mi SE 13.8 mph 23.0 mph N/A Thunderstorm Overcast
11:23 PM 64.4 °F 60.8 °F 88% 29.84 in 4.0 mi North 26.5 mph 36.8 mph N/A Rain , Thunderstorm Thunderstorms and Rain
11:29 PM 62.6 °F 60.8 °F 94% 29.82 in 1.8 mi NNE 23.0 mph 36.8 mph N/A Rain , Thunderstorm Heavy Thunderstorms and Rain
11:53 PM 64.0 °F 61.0 °F 90% 29.88 in 1.0 mi East 16.1 mph 33.4 mph N/A Rain , Thunderstorm Heavy Thunderstorms and Rain
11:57 PM 64.4 °F 60.8 °F 88% 29.86 in 0.8 mi NE 21.9 mph 46.0 mph 0.00 in Rain , Thunderstorm Heavy Thunderstorms and Rain